Regional Weather Roundup
Issued by NWS Burlington, VT

Home | Current Version | Previous Version | Text Only | Print | Product List | Glossary On
Versions: 1 2 3 4 5 6 7 8 9 10 11 12 13 14 15 16 17 18 19 20 21 22 23 24 25 26 27 28 29 30 31 32 33 34 35 36 37 38 39 40 41 42 43 44 45 46 47 48 49 50
000
ASUS41 KBTV 030310
RWRBTV
VERMONT REGIONAL WEATHER ROUNDUP
NATIONAL WEATHER SERVICE BURLINGTON VT
1100 PM EDT MON MAY 02 2016

NOTE: "FAIR" INDICATES FEW OR NO CLOUDS BELOW 12,000 FEET WITH NO
SIGNIFICANT WEATHER AND/OR OBSTRUCTIONS TO VISIBILITY.

* THESE REPORTS ARE NOT UNDER NWS QUALITY CONTROL AND/OR DO NOT
  REPORT WEATHER SUCH AS PRECIPITATION AND FOG.

VTZ001>019-030400-
_____VERMONT_____


CITY           SKY/WX    TMP DP  RH WIND       PRES   REMARKS
BURLINGTON     CLOUDY    46  42  86 NW6       29.97S
MONTPELIER     CLOUDY    43  41  93 NW8       29.98S
MORRISVILLE    CLOUDY    43  41  93 CALM      29.97R
ST. JOHNSBURY*   N/A     44  42  93 MISG      29.93S
LYNDONVILLE*   FOG       43  42  97 SE3       29.94S VSB 1/2
MIDDLEBURY*    CLOUDY    44  44 100 CALM      29.96F
RUTLAND*       CLOUDY    45  43  93 N5        29.96F
SPRINGFIELD    CLOUDY    46  44  93 CALM      29.96S
HIGHGATE*      CLOUDY    44  42  93 CALM      29.97R
NEWPORT*       CLOUDY    42  41  98 NW6       29.94S
BENNINGTON     CLOUDY    48  47  96 CALM      29.92F FOG

_____LAKE CHAMPLAIN_____


CITY           SKY/WX    TMP DP  RH WIND       PRES   REMARKS
COLCHESTER RF*   N/A     45  43  93 NW8         N/A
DIAMOND ISL*     N/A     46  43  87 NW10        N/A

$$

NYZ007-026>031-035-052-083-087-030400-
_____NORTHERN NEW YORK_____


CITY           SKY/WX    TMP DP  RH WIND       PRES   REMARKS
SARANAC LAKE   CLOUDY    41  38  89 CALM      29.93F
MASSENA        CLOUDY    45  41  86 CALM      30.00F
OGDENSBURG*    CLOUDY    45  45 100 CALM      30.00S
WATERTOWN      CLOUDY    40  39  97 N6        29.99F FOG
FT DRUM        MOCLDY    42  41  97 NE2       29.98F
ALBANY         CLOUDY    49  45  86 NW8       29.93F
GLENS FALLS    LGT RAIN  47  44  90 NE10      29.96S FOG

$$
NHZ002-005-011-030400-
_____NEW HAMPSHIRE_____


CITY           SKY/WX    TMP DP  RH WIND       PRES   REMARKS
LEBANON        CLOUDY    46  43  89 S5        29.95S
KEENE          CLOUDY    45  43  93 CALM      29.96F VSB 1/4
MT WASHINGTON  FRZ DRZL  27  27 100 W23         N/A  VSB 1/16WCI  12
PLYMOUTH       CLOUDY    44  43  96 CALM      29.94F
WHITEFIELD     CLOUDY    42  38  85 CALM      29.93R

$$

_____REGIONAL QUEBEC LOCATIONS_____


CITY           SKY/WX    TMP DP  RH WIND       PRES   REMARKS
MONTREAL       CLOUDY    45  41  87 N5        29.97F
QUEBEC CITY    LGT RAIN  41  37  87 NE9       29.98F
SHERBROOKE     CLOUDY    41  39  93 NE6       29.92F

_____REGIONAL ONTARIO LOCATIONS_____


CITY           SKY/WX    TMP DP  RH WIND       PRES   REMARKS
OTTAWA         CLOUDY    43  43 100 SW2       30.01S

______KEY______
VSB  - VISIBILITY IN MILES
WCI  - WIND CHILL INDEX
HX   - HEAT INDEX
$$
NNNN




USA.gov is the U.S. government's official web portal to all federal, state and local government web resources and services.